OPS 0100 DEB *, 4843

Orbit data source: Space-Track

OPS 0100 DEB *, 4843 is space debris in LEO originally from a launch on Fri, 14 Apr 1967 UTC launched from the Air Force Western Test Range (AFWTR). Debris objects in space refer to the collection of defunct objects orbiting the Earth. Examples of debris include non-operational satellites, rocket bodies, and fragments generated from explosions, collisions, or faulty payload assembly.

Loading next visibility...
Identifier
4843, 1967-034E
Orbit
LEO
Country
Flag of USUS
Related business
Manufacturer
Unknown
Mission
Spacecraft
Bus & Motor
Unknown
Mass
Unknown
Launch date (UTC)
1967-04-14 (58 years ago)
Launch vehicle
Unknown
Launch site
Air Force Western Test Range (AFWTR)
Object type
Payload
Rocket body
Debris
Shape & HBR
Unknown
Radar Cross Section
Small (<0.1 m²)

Expand to show TLE details & history
Last TLE update: 2 days ago

TLE from 2 days ago
0 OPS 0100 DEB *
1 04843U 67034E   25257.11683535  .00000121  00000-0  17063-3 0  9996
2 04843  90.3729 131.0074 0026212 211.1286 305.7015 13.52568868236320
Epoch: 2025-09-14T02:48Z
TLE epoch observation values (Epoch: 2025-09-14T02:48:14.574Z)
Latitude
23.43227°
Longitude
-84.23299°
Altitude
1,054.366 km
Speed
7.332 km/s
True Right ascension
20h 44m 40s
True Declination
23° 18' 43"
Sunlit
Object was in full shadow at epoch
Visualization orbit readout
Latitude
Unknown
Longitude
Unknown
Altitude
Unknown
Speed
Unknown
Apparent Right ascension
Unknown
Apparent Declination
Unknown
Sunlit
N/A
Visualization observer readout
Local Sidereal Time
14:29:30
Azimuth
Unknown
Elevation
Unknown
Doppler factor
Unknown
Orbital elements
Apogee altitude
1,079.365 km
Perigee altitude
1,040.372 km
Semi-major axis
7,438.005 km
Eccentricity
0.00262
Inclination
90.3729°
RAAN
131.0074°
Arg. of periapsis
211.1286°
True anomaly
305.45711°
Mean anomaly
305.7015°
Eccentric anomaly
305.57935°
Mean motion
3.38344 °/min
Orbital period
106.4 mins
BSTAR
0.00017063
Loading maneuver chart data...
Computing Atmospheric mass density...
Loading historical data...
Loading historical data...
Loading historical data...
Loading historical data...
Loading historical data...
Loading historical data...
Loading historical data...

Documentation

Showing up to 5 results
|